DLL YCNY-YCCY

Flight info

Callsign DLL
Flight time 0h 54m
Altitude 3500
Route YRLH YBMA MKN
Aircraft LEG2/L-SDE2E3FGHIRWXY/LB1

Departure

Time 2026-04-26 09:28
Airport Century Mine Airport (YCNY)

Arrival

Time 2026-04-26 10:22
Airport Cloncurry Airport (YCCY)
Time Latitude Longitude Altitude Speed Heading
2026-04-26 09:26 -18.75617 138.70521 422 ft 0 kts 52°
2026-04-26 09:27 -18.75604 138.70523 422 ft 4 kts 305°
2026-04-26 09:27 -18.75561 138.70483 422 ft 8 kts 358°
2026-04-26 09:27 -18.75511 138.70524 421 ft 16 kts 41°
2026-04-26 09:27 -18.75442 138.70531 421 ft 18 kts 319°
2026-04-26 09:28 -18.75454 138.70578 421 ft 41 kts 136°
2026-04-26 09:28 -18.75914 138.70909 468 ft 107 kts 142°
2026-04-26 09:28 -18.76668 138.71269 749 ft 134 kts 157°
2026-04-26 09:28 -18.77625 138.71533 1218 ft 139 kts 160°
2026-04-26 09:29 -18.78572 138.71607 1850 ft 134 kts 175°
2026-04-26 09:29 -18.79543 138.71606 2253 ft 147 kts 165°
2026-04-26 09:29 -18.80767 138.71736 2306 ft 188 kts 171°
2026-04-26 09:29 -18.82161 138.71832 2595 ft 201 kts 172°
2026-04-26 09:30 -18.83702 138.71889 2761 ft 215 kts 172°
2026-04-26 09:30 -18.85236 138.71951 3047 ft 220 kts 174°
2026-04-26 09:30 -18.86829 138.71912 3278 ft 226 kts 178°
2026-04-26 09:30 -18.88462 138.71814 3493 ft 228 kts 179°
2026-04-26 09:31 -18.90091 138.71738 3836 ft 225 kts 178°
2026-04-26 09:31 -18.91653 138.71713 4214 ft 222 kts 175°
2026-04-26 09:31 -18.93272 138.71737 4218 ft 234 kts 174°
2026-04-26 09:31 -18.94896 138.71856 4716 ft 218 kts 171°
2026-04-26 09:32 -18.96548 138.72057 4612 ft 235 kts 169°
2026-04-26 09:32 -18.98182 138.72255 4839 ft 233 kts 168°
2026-04-26 09:32 -18.99823 138.72545 4910 ft 238 kts 165°
2026-04-26 09:32 -19.01431 138.72988 5079 ft 238 kts 160°
2026-04-26 09:33 -19.02978 138.73556 5379 ft 230 kts 157°
2026-04-26 09:33 -19.04553 138.74088 5285 ft 242 kts 163°
2026-04-26 09:33 -19.06199 138.74352 5163 ft 255 kts 173°
2026-04-26 09:33 -19.08063 138.74325 4849 ft 265 kts 178°
2026-04-26 09:34 -19.09866 138.74293 5004 ft 259 kts 178°
2026-04-26 09:34 -19.11683 138.74308 5128 ft 255 kts 176°
2026-04-26 09:34 -19.13474 138.74268 5087 ft 259 kts 178°
2026-04-26 09:34 -19.15317 138.74241 4904 ft 266 kts 176°
2026-04-26 09:35 -19.17226 138.74276 4719 ft 270 kts 174°
2026-04-26 09:35 -19.19118 138.74391 4663 ft 267 kts 171°
2026-04-26 09:35 -19.20991 138.74641 4515 ft 267 kts 167°
2026-04-26 09:35 -19.22847 138.75019 4412 ft 267 kts 165°
2026-04-26 09:36 -19.24686 138.75411 4256 ft 268 kts 164°
2026-04-26 09:36 -19.26556 138.75860 3916 ft 276 kts 165°
2026-04-26 09:36 -19.28476 138.76107 3936 ft 269 kts 173°
2026-04-26 09:36 -19.30372 138.76059 3929 ft 266 kts 179°
2026-04-26 09:37 -19.32206 138.75959 3995 ft 259 kts 179°
2026-04-26 09:37 -19.34058 138.75872 3881 ft 262 kts 178°
2026-04-26 09:37 -19.35950 138.75815 3743 ft 264 kts 178°
2026-04-26 09:37 -19.37848 138.75782 3677 ft 263 kts 177°
2026-04-26 09:38 -19.39710 138.75792 3680 ft 259 kts 175°
2026-04-26 09:38 -19.41528 138.75848 3650 ft 259 kts 174°
2026-04-26 09:38 -19.43392 138.75957 3422 ft 264 kts 173°
2026-04-26 09:38 -19.45288 138.75900 3312 ft 265 kts 182°
2026-04-26 09:39 -19.47087 138.75689 3557 ft 254 kts 182°
2026-04-26 09:39 -19.48815 138.75539 3682 ft 250 kts 179°
2026-04-26 09:39 -19.50583 138.75505 3548 ft 256 kts 175°
2026-04-26 09:39 -19.52375 138.75552 3513 ft 255 kts 174°
2026-04-26 09:40 -19.54157 138.75614 3460 ft 257 kts 174°
2026-04-26 09:40 -19.55917 138.75732 3593 ft 251 kts 172°
2026-04-26 09:40 -19.57661 138.75912 3619 ft 250 kts 170°
2026-04-26 09:40 -19.59389 138.76099 3673 ft 250 kts 170°
2026-04-26 09:41 -19.61137 138.76303 3636 ft 252 kts 168°
2026-04-26 09:41 -19.62880 138.76514 3713 ft 250 kts 171°
2026-04-26 09:41 -19.64595 138.76717 3895 ft 243 kts 168°
2026-04-26 09:41 -19.66275 138.76883 3976 ft 245 kts 171°
2026-04-26 09:42 -19.68035 138.76980 3730 ft 258 kts 176°
2026-04-26 09:42 -19.69888 138.76895 3478 ft 267 kts 179°
2026-04-26 09:42 -19.71008 138.76834 3406 ft 268 kts 181°
2026-04-26 09:42 -19.72871 138.76611 3364 ft 266 kts 183°
2026-04-26 09:43 -19.74721 138.76438 3417 ft 260 kts 180°
2026-04-26 09:43 -19.76560 138.76310 3299 ft 263 kts 181°
2026-04-26 09:43 -19.78408 138.76104 3168 ft 266 kts 183°
2026-04-26 09:43 -19.80259 138.75835 3142 ft 264 kts 184°
2026-04-26 09:44 -19.82093 138.75582 2974 ft 268 kts 184°
2026-04-26 09:44 -19.83978 138.75336 2772 ft 272 kts 183°
2026-04-26 09:44 -19.85885 138.75168 2668 ft 269 kts 177°
2026-04-26 09:44 -19.87734 138.75121 2690 ft 265 kts 178°
2026-04-26 09:45 -19.89598 138.75089 2578 ft 266 kts 177°
2026-04-26 09:45 -19.91476 138.75076 2434 ft 268 kts 176°
2026-04-26 09:45 -19.93364 138.75111 2253 ft 271 kts 175°
2026-04-26 09:45 -19.95232 138.75088 2292 ft 266 kts 181°
2026-04-26 09:46 -19.97034 138.74964 2576 ft 254 kts 179°
2026-04-26 09:46 -19.98791 138.74821 2708 ft 251 kts 181°
2026-04-26 09:46 -20.00505 138.74538 2998 ft 245 kts 189°
2026-04-26 09:46 -20.02157 138.74048 3366 ft 236 kts 191°
2026-04-26 09:47 -20.03747 138.73582 3622 ft 234 kts 191°
2026-04-26 09:47 -20.05294 138.73388 4089 ft 216 kts 165°
2026-04-26 09:47 -20.06639 138.74154 4115 ft 223 kts 136°
2026-04-26 09:47 -20.07810 138.75359 4058 ft 232 kts 133°
2026-04-26 09:48 -20.08933 138.76588 4244 ft 230 kts 131°
2026-04-26 09:48 -20.10044 138.77868 4332 ft 232 kts 129°
2026-04-26 09:48 -20.11188 138.79286 4181 ft 243 kts 130°
2026-04-26 09:48 -20.12408 138.80618 4251 ft 242 kts 132°
2026-04-26 09:49 -20.13588 138.81947 4306 ft 242 kts 131°
2026-04-26 09:49 -20.14802 138.83309 3899 ft 259 kts 130°
2026-04-26 09:49 -20.16057 138.84746 3685 ft 262 kts 133°
2026-04-26 09:49 -20.17428 138.86130 3720 ft 254 kts 136°
2026-04-26 09:50 -20.18707 138.87336 4087 ft 233 kts 136°
2026-04-26 09:50 -20.19900 138.88577 3969 ft 237 kts 132°
2026-04-26 09:50 -20.21010 138.89908 3812 ft 241 kts 128°
2026-04-26 09:50 -20.22069 138.91302 3813 ft 238 kts 126°
2026-04-26 09:51 -20.23094 138.92687 3781 ft 237 kts 127°
2026-04-26 09:51 -20.24096 138.94164 3664 ft 239 kts 120°
2026-04-26 09:51 -20.24884 138.95756 3673 ft 236 kts 115°
2026-04-26 09:51 -20.25597 138.97345 3774 ft 230 kts 115°
2026-04-26 09:52 -20.26394 138.98866 3767 ft 231 kts 121°
2026-04-26 09:52 -20.28254 139.01746 3672 ft 236 kts 126°
2026-04-26 09:52 -20.29307 139.03160 3532 ft 240 kts 127°
2026-04-26 09:53 -20.30360 139.04642 3279 ft 246 kts 124°
2026-04-26 09:53 -20.31300 139.06132 3442 ft 236 kts 123°
2026-04-26 09:53 -20.32255 139.07547 3558 ft 230 kts 127°
2026-04-26 09:53 -20.33274 139.08813 3746 ft 223 kts 129°
2026-04-26 09:54 -20.34275 139.10140 3697 ft 228 kts 126°
2026-04-26 09:54 -20.35199 139.11550 3509 ft 237 kts 121°
2026-04-26 09:54 -20.35986 139.13150 3344 ft 241 kts 115°
2026-04-26 09:54 -20.36752 139.14818 3124 ft 245 kts 114°
2026-04-26 09:55 -20.37407 139.16505 3166 ft 238 kts 109°
2026-04-26 09:55 -20.37865 139.18198 3318 ft 230 kts 104°
2026-04-26 09:55 -20.38233 139.19879 3343 ft 230 kts 102°
2026-04-26 09:55 -20.38521 139.21569 3450 ft 226 kts 101°
2026-04-26 09:56 -20.38806 139.23219 3534 ft 224 kts 101°
2026-04-26 09:56 -20.39080 139.24845 3573 ft 225 kts 100°
2026-04-26 09:56 -20.39354 139.26531 3500 ft 230 kts 103°
2026-04-26 09:56 -20.39844 139.28090 3806 ft 217 kts 112°
2026-04-26 09:57 -20.40537 139.29555 3735 ft 224 kts 119°
2026-04-26 09:57 -20.41366 139.30943 3948 ft 218 kts 124°
2026-04-26 09:57 -20.42282 139.32213 4161 ft 213 kts 129°
2026-04-26 09:57 -20.43242 139.33476 4110 ft 221 kts 127°
2026-04-26 09:58 -20.44199 139.34783 4136 ft 223 kts 127°
2026-04-26 09:58 -20.45246 139.36158 3869 ft 235 kts 130°
2026-04-26 09:58 -20.46395 139.37350 4057 ft 227 kts 137°
2026-04-26 09:58 -20.47620 139.38357 4320 ft 218 kts 141°
2026-04-26 09:59 -20.48854 139.39318 4307 ft 224 kts 141°
2026-04-26 09:59 -20.49703 139.40025 3991 ft 239 kts 139°
2026-04-26 09:59 -20.51325 139.41623 4035 ft 232 kts 135°
2026-04-26 09:59 -20.52479 139.42762 4258 ft 223 kts 137°
2026-04-26 10:00 -20.53709 139.43845 3860 ft 243 kts 145°
2026-04-26 10:00 -20.55241 139.44635 3829 ft 242 kts 157°
2026-04-26 10:00 -20.56811 139.45070 4374 ft 219 kts 167°
2026-04-26 10:00 -20.58324 139.45147 4660 ft 215 kts 177°
2026-04-26 10:01 -20.59840 139.45169 4348 ft 221 kts 173°
2026-04-26 10:01 -20.61352 139.45546 3170 ft 222 kts 148°
2026-04-26 10:01 -20.62482 139.46438 2705 ft 169 kts 137°
2026-04-26 10:01 -20.63174 139.47194 2171 ft 122 kts 130°
2026-04-26 10:02 -20.63651 139.47770 1773 ft 93 kts 136°
2026-04-26 10:02 -20.64080 139.48182 1638 ft 83 kts 141°
2026-04-26 10:02 -20.64627 139.48403 1480 ft 83 kts 167°
2026-04-26 10:02 -20.65185 139.48510 1288 ft 81 kts 163°
2026-04-26 10:03 -20.65725 139.48639 1156 ft 78 kts 163°
2026-04-26 10:03 -20.66172 139.48756 1142 ft 65 kts 166°
2026-04-26 10:03 -20.66760 139.48849 1286 ft 100 kts 162°
2026-04-26 10:03 -20.67171 139.49314 1723 ft 98 kts 98°
2026-04-26 10:04 -20.67210 139.50110 1897 ft 111 kts 92°
2026-04-26 10:04 -20.67225 139.50957 2047 ft 119 kts 91°
2026-04-26 10:04 -20.67232 139.51827 2289 ft 115 kts 97°
2026-04-26 10:04 -20.67383 139.52589 2754 ft 92 kts 96°
2026-04-26 10:05 -20.67462 139.53345 2813 ft 122 kts 99°
2026-04-26 10:05 -20.67699 139.54318 2880 ft 149 kts 109°
2026-04-26 10:05 -20.68111 139.55492 2873 ft 173 kts 110°
2026-04-26 10:05 -20.68496 139.56719 3078 ft 179 kts 105°
2026-04-26 10:06 -20.68803 139.58029 3197 ft 188 kts 104°
2026-04-26 10:06 -20.69146 139.59417 3269 ft 196 kts 104°
2026-04-26 10:06 -20.69470 139.60858 3284 ft 205 kts 104°
2026-04-26 10:06 -20.69790 139.62373 3254 ft 211 kts 103°
2026-04-26 10:07 -20.70100 139.63884 3455 ft 207 kts 103°
2026-04-26 10:07 -20.70422 139.65414 3402 ft 214 kts 103°
2026-04-26 10:07 -20.70708 139.66991 3339 ft 219 kts 99°
2026-04-26 10:07 -20.70922 139.68588 3486 ft 215 kts 98°
2026-04-26 10:08 -20.71087 139.70188 3612 ft 213 kts 97°
2026-04-26 10:08 -20.71283 139.71801 3560 ft 218 kts 99°
2026-04-26 10:08 -20.71593 139.73389 3591 ft 218 kts 105°
2026-04-26 10:08 -20.72158 139.74906 3633 ft 217 kts 115°
2026-04-26 10:09 -20.72905 139.76272 3944 ft 206 kts 125°
2026-04-26 10:09 -20.73924 139.77355 4179 ft 202 kts 129°
2026-04-26 10:09 -20.74621 139.78706 4288 ft 205 kts 114°
2026-04-26 10:09 -20.75243 139.80154 4343 ft 208 kts 115°
2026-04-26 10:10 -20.75829 139.81704 4218 ft 219 kts 105°
2026-04-26 10:10 -20.76075 139.83405 3987 ft 230 kts 99°
2026-04-26 10:10 -20.76348 139.85101 4040 ft 224 kts 102°
2026-04-26 10:10 -20.76615 139.86691 4399 ft 209 kts 101°
2026-04-26 10:11 -20.76887 139.88239 4469 ft 210 kts 102°
2026-04-26 10:11 -20.77201 139.89787 4435 ft 216 kts 104°
2026-04-26 10:11 -20.77629 139.91441 4417 ft 218 kts 107°
2026-04-26 10:11 -20.78086 139.93020 4309 ft 223 kts 108°
2026-04-26 10:12 -20.78465 139.94655 4529 ft 215 kts 98°
2026-04-26 10:12 -20.78466 139.96290 4821 ft 208 kts 84°
2026-04-26 10:12 -20.78229 139.97898 4730 ft 218 kts 84°
2026-04-26 10:12 -20.77990 139.99565 4600 ft 226 kts 83°
2026-04-26 10:13 -20.77686 140.01324 4643 ft 225 kts 81°
2026-04-26 10:13 -20.77345 140.03068 4569 ft 228 kts 80°
2026-04-26 10:13 -20.77000 140.04780 4501 ft 230 kts 80°
2026-04-26 10:13 -20.76634 140.06518 4483 ft 230 kts 79°
2026-04-26 10:14 -20.76225 140.08292 4328 ft 235 kts 78°
2026-04-26 10:14 -20.75788 140.10066 4210 ft 236 kts 78°
2026-04-26 10:14 -20.75249 140.11781 4429 ft 226 kts 70°
2026-04-26 10:14 -20.74571 140.13394 4459 ft 224 kts 72°
2026-04-26 10:15 -20.74065 140.15024 4698 ft 215 kts 76°
2026-04-26 10:15 -20.73582 140.16618 4787 ft 216 kts 73°
2026-04-26 10:15 -20.73038 140.18164 4881 ft 216 kts 71°
2026-04-26 10:15 -20.72492 140.19735 4934 ft 217 kts 76°
2026-04-26 10:16 -20.72154 140.21342 5036 ft 214 kts 83°
2026-04-26 10:16 -20.72016 140.22963 4998 ft 217 kts 91°
2026-04-26 10:16 -20.72001 140.24619 4935 ft 222 kts 91°
2026-04-26 10:16 -20.71998 140.26331 4716 ft 231 kts 92°
2026-04-26 10:17 -20.72027 140.28093 4682 ft 230 kts 92°
2026-04-26 10:17 -20.72013 140.29815 4636 ft 229 kts 92°
2026-04-26 10:17 -20.71991 140.31542 4647 ft 228 kts 91°
2026-04-26 10:17 -20.71969 140.33322 4179 ft 244 kts 94°
2026-04-26 10:18 -20.72034 140.35166 4094 ft 240 kts 94°
2026-04-26 10:18 -20.72047 140.36991 3710 ft 249 kts 90°
2026-04-26 10:18 -20.71849 140.38847 3663 ft 243 kts 80°
2026-04-26 10:18 -20.71479 140.40578 3813 ft 231 kts 80°
2026-04-26 10:19 -20.71062 140.42250 3839 ft 229 kts 74°
2026-04-26 10:19 -20.70389 140.43811 3912 ft 228 kts 65°
2026-04-26 10:19 -20.69542 140.45359 3477 ft 247 kts 62°
2026-04-26 10:19 -20.68512 140.46722 2979 ft 209 kts 30°
2026-04-26 10:20 -20.67259 140.46740 2656 ft 150 kts 356°
2026-04-26 10:20 -20.66609 140.46645 2380 ft 120 kts
2026-04-26 10:20 -20.65650 140.46855 1865 ft 100 kts 28°
2026-04-26 10:20 -20.65058 140.47158 1697 ft 97 kts 38°
2026-04-26 10:21 -20.64491 140.47583 1622 ft 90 kts 57°
2026-04-26 10:21 -20.64423 140.48192 1448 ft 92 kts 120°
2026-04-26 10:21 -20.64957 140.48630 1244 ft 99 kts 142°
2026-04-26 10:21 -20.65437 140.49149 1006 ft 97 kts 122°
2026-04-26 10:22 -20.65845 140.49707 832 ft 92 kts 123°
2026-04-26 10:22 -20.66201 140.50195 659 ft 80 kts 120°
2026-04-26 10:22 -20.66502 140.50607 637 ft 54 kts 124°
2026-04-26 10:22 -20.66645 140.50797 640 ft 11 kts 157°
2026-04-26 10:23 -20.66691 140.50774 641 ft 15 kts 256°
2026-04-26 10:23 -20.66717 140.50691 641 ft 6 kts 244°
2026-04-26 10:23 -20.66754 140.50653 640 ft 2 kts 162°
2026-04-26 10:23 -20.66822 140.50690 641 ft 20 kts 137°
2026-04-26 10:24 -20.66869 140.50751 643 ft 1 kts 123°
2026-04-26 10:24 -20.66897 140.50776 644 ft 3 kts 192°
2026-04-26 10:24 -20.66898 140.50774 644 ft 0 kts 321°